Location: Unspecified
(0.0000°N, 0.0000°E)
Time: 15:16:51
(UTC+00:00)

Amateur Radio Satellites - All Passes

Search period start: 27 February 2015 14:46
Search period end: 28 February 2015 14:46
Location: Unspecified, 0.0000°N, 0.0000°E

Satellite Date Start Highest point End Downlink Frequencies (MHz)
Time Altitude Azimuth
ITAMSAT 1 27 Feb 14:49:04 14:53:20 25° 258° (WSW) 14:57:27 435.822/435.867
PHONESAT 2.4 27 Feb 14:51:40 14:53:16 13° 140° (SE) 14:55:01 2401.200-2431.200
HORYU 2 27 Feb 14:58:11 15:02:36 60° 78° (ENE) 15:06:59 437.375
VERMONT LUNAR 27 Feb 15:13:53 15:17:21 74° 139° (SE) 15:20:50 437.305
AO-7 27 Feb 15:35:14 15:43:32 68° 75° (ENE) 15:51:49 29.400- 29.500
SRMSAT 27 Feb 16:10:45 16:14:39 18° 194° (SSW) 16:18:28 437.500
M-CUBED/EXP-1 PRIME 27 Feb 16:13:29 16:17:59 56° 285° (WNW) 16:22:43 437.505
AUBIESAT-1 27 Feb 16:18:48 16:23:18 54° 285° (WNW) 16:28:00 437.475
JUGNU 27 Feb 16:21:17 16:22:02 10° 185° (S) 16:22:43 437.505
PHONESAT 2.4 27 Feb 16:28:16 16:31:43 40° 317° (NW) 16:35:08 2401.200-2431.200
YUBILEINY 27 Feb 16:31:24 16:40:02 65° 274° (W) 16:48:36 435.215
AIST 2 27 Feb 16:39:07 16:42:07 20° 113° (ESE) 16:45:17 435.215
MOZHAYETS 4 27 Feb 16:39:41 16:44:16 64° 281° (W) 16:48:54
JAS-2 27 Feb 16:39:56 16:44:55 45° 258° (WSW) 16:49:53 435.910
BEESAT 3 27 Feb 16:40:55 16:44:54 77° 293° (WNW) 16:48:56 437.485
BEESAT 2 27 Feb 17:02:15 17:06:06 44° 292° (WNW) 17:10:00 435.950
AO-7 27 Feb 17:31:39 17:36:15 15° 256° (WSW) 17:40:06 29.400- 29.500
PRISM 27 Feb 17:36:16 17:39:47 27° 101° (E) 17:43:24 437.425
Cubesat XI-IV 27 Feb 17:45:22 17:50:37 60° 78° (ENE) 17:55:54 437.490
CUTE-I 27 Feb 17:55:24 18:00:45 78° 78° (ENE) 18:06:06 437.470
SRMSAT 27 Feb 18:03:57 18:04:47 10° 184° (S) 18:05:34 437.500
JUGNU 27 Feb 18:11:23 18:12:11 10° 175° (S) 18:13:03 437.505
AIST 2 27 Feb 18:18:00 18:20:37 16° 294° (WNW) 18:23:03 435.215
CUBESAT XI-V 27 Feb 18:27:58 18:32:35 60° 281° (W) 18:37:11 437.345
STRAND 1 27 Feb 18:40:40 18:45:47 83° 283° (WNW) 18:50:56 437.568
AIST 1 27 Feb 18:43:13 18:47:17 39° 86° (E) 18:51:22
PCSat 27 Feb 18:48:47 18:50:22 12° 113° (ESE) 18:52:24 145.827
HO-68 27 Feb 19:04:41 19:06:12 11° 78° (ENE) 19:08:27 435.675
PRISM 27 Feb 19:13:39 19:15:12 11° 280° (W) 19:16:26 437.425
ISS 27 Feb 19:40:58 19:44:09 54° 235° (SW) 19:47:22 145.825
BRITE-PL 27 Feb 19:44:57 19:50:11 43° 79° (E) 19:55:35 437.365/2234.400
SRMSAT 27 Feb 19:53:39 19:55:07 11° 174° (S) 19:56:40 437.500
O/OREOS (USA 219) 27 Feb 19:55:51 19:57:51 13° 73° (ENE) 20:00:09 437.305
JUGNU 27 Feb 19:58:10 20:02:06 18° 166° (SSE) 20:06:07 437.505
CINEMA 3 27 Feb 20:02:50 20:04:04 11° 81° (E) 20:05:44 145.822/145.860
COMPASS 1 27 Feb 20:03:35 20:06:35 20° 80° (E) 20:09:43 437.405
AAUSAT CUBESAT 2 27 Feb 20:04:20 20:06:57 17° 80° (E) 20:09:44 437.432
GOMX 1 27 Feb 20:08:40 20:13:58 51° 79° (E) 20:19:17 467.674
CANX-2 27 Feb 20:21:36 20:25:51 72° 79° (E) 20:30:03 2200.000
SEEDS 27 Feb 20:24:23 20:28:31 54° 79° (E) 20:32:37 437.485
PCSat 27 Feb 20:28:37 20:33:46 44° 290° (WNW) 20:38:53 145.827
CUTE 1.7 + AOD 2 27 Feb 20:40:46 20:45:01 66° 259° (W) 20:49:11 437.475
GONETS M04 27 Feb 20:45:00 20:51:31 25° 96° (E) 20:58:26
CUBEBUG 2 27 Feb 20:46:03 20:49:28 20° 80° (E) 20:52:58 437.445
HO-68 27 Feb 20:46:47 20:53:54 70° 256° (WSW) 21:00:59 435.675
DOVE 4 27 Feb 21:01:01 21:06:15 57° 259° (WSW) 21:11:25 437.250
Oscar 11 27 Feb 21:03:58 21:08:10 50° 79° (E) 21:12:21 145.826/435.025
DX 1 27 Feb 21:22:03 21:26:02 35° 79° (ENE) 21:30:03 434.975-435.025
BRITE-PL 27 Feb 21:25:34 21:28:37 14° 261° (W) 21:31:18 437.365/2234.400
DELFI C3 27 Feb 21:32:18 21:36:21 79° 259° (WSW) 21:40:22 145.870
O/OREOS (USA 219) 27 Feb 21:33:21 21:37:11 26° 254° (WSW) 21:40:54 437.305
CINEMA 3 27 Feb 21:36:28 21:41:13 41° 259° (WSW) 21:45:50 145.822/145.860
AAUSAT CUBESAT 2 27 Feb 21:39:35 21:42:29 18° 260° (W) 21:45:12 437.432
COMPASS 1 27 Feb 21:39:40 21:42:12 15° 260° (W) 21:44:30 437.405
ZACube-1 27 Feb 21:40:36 21:45:11 72° 78° (ENE) 21:49:38 437.345
FUNcube-1 27 Feb 21:40:43 21:45:17 70° 78° (ENE) 21:49:43 145.935
SRMSAT 27 Feb 21:40:58 21:45:11 20° 165° (SSE) 21:49:30 437.500
JUGNU 27 Feb 21:45:56 21:51:29 44° 160° (SSE) 21:57:06 437.505
DUCHIFAT 1 27 Feb 21:49:55 21:51:57 14° 100° (E) 21:54:14 145.980
GOMX 1 27 Feb 21:50:28 21:52:01 11° 261° (W) 21:53:03 467.674
RS-15 27 Feb 21:50:30 22:01:15 53° 113° (ESE) 22:11:47 29.354- 29.394
UWE-3 27 Feb 21:51:30 21:56:09 62° 259° (WSW) 22:00:38 435.000/436.395/437.385
UKube-1 27 Feb 21:55:52 22:00:14 77° 259° (W) 22:04:33 .
BUGSAT 1 27 Feb 21:59:00 22:00:29 12° 100° (E) 22:02:15 437.445
UNISAT 6 27 Feb 21:59:38 22:03:48 46° 102° (ESE) 22:08:06 437.425
POLYITAN 1 27 Feb 22:04:34 22:07:56 24° 101° (E) 22:11:25 437.675
POPSAT HIP 1 27 Feb 22:06:54 22:10:21 25° 101° (E) 22:13:52 437.405
HUMSAT D 27 Feb 22:12:28 22:16:48 89° 82° (E) 22:21:04 437.325/437.525
CUBEBUG 2 27 Feb 22:22:29 22:26:02 20° 259° (W) 22:29:21 437.445
DANDE 27 Feb 22:24:15 22:25:58 11° 102° (ESE) 22:28:37 436.750
TIGRISAT 27 Feb 22:26:21 22:30:39 74° 281° (WNW) 22:35:06 435.000
NANOSAT C BR1 27 Feb 22:30:50 22:34:58 59° 102° (ESE) 22:39:07 145.865
ANTELSAT 27 Feb 22:38:02 22:42:14 48° 281° (W) 22:46:32 437.575/2403.000
GONETS M04 27 Feb 22:40:11 22:48:16 41° 274° (W) 22:56:09
AISAT 27 Feb 22:44:35 22:48:56 48° 259° (WSW) 22:53:15 437.250
50 SAT 27 Feb 22:47:03 22:50:54 41° 259° (W) 22:54:42 437.505
VELOX 1 27 Feb 22:56:08 23:00:13 34° 259° (W) 23:04:15 145.980
ESTCUBE 1 27 Feb 22:57:50 23:02:21 88° 258° (WSW) 23:06:51 437.505/2401.250
CUBEBUG 1 27 Feb 23:00:28 23:04:53 90° 216° (SW) 23:09:18 437.445
QB50P1 27 Feb 23:02:50 23:06:50 43° 281° (W) 23:10:50 145.935-145.965
QB50P2 27 Feb 23:05:27 23:09:23 38° 281° (W) 23:13:19 145.880/145.840
CUSAT 1 27 Feb 23:09:59 23:17:39 43° 98° (E) 23:24:24 437.405
DUCHIFAT 1 27 Feb 23:24:23 23:27:42 22° 280° (W) 23:30:54 145.980
SRMSAT 27 Feb 23:29:00 23:34:45 47° 160° (SSE) 23:40:31 437.500
BUGSAT 1 27 Feb 23:32:36 23:35:54 23° 281° (W) 23:39:04 437.445
JUGNU 27 Feb 23:34:42 23:40:34 67° 339° (NNW) 23:46:29 437.505
POLYITAN 1 27 Feb 23:41:49 23:43:46 13° 280° (W) 23:45:28 437.675
POPSAT HIP 1 27 Feb 23:44:26 23:46:09 12° 280° (W) 23:47:34 437.405
SPROUT 27 Feb 23:46:42 23:51:02 68° 79° (E) 23:55:20 437.525
DANDE 28 Feb 00:01:16 00:09:58 85° 275° (W) 00:17:29 436.750
TISAT 1 28 Feb 00:03:13 00:07:30 77° 258° (WSW) 00:11:46 437.305
RS-15 28 Feb 00:04:46 00:13:33 25° 294° (WNW) 00:21:35 29.354- 29.394
Oscar 19 28 Feb 00:15:50 00:19:03 18° 101° (E) 00:22:32 437.125/150
ITUPSAT 1 28 Feb 00:16:24 00:18:15 13° 80° (E) 00:20:27 437.325
CUSAT 1 28 Feb 00:53:53 01:00:17 24° 273° (W) 01:05:40 437.405
SO-50 28 Feb 01:15:45 01:19:58 44° 293° (WNW) 01:24:14 436.795
SWISSCUBE 28 Feb 01:16:50 01:21:36 82° 256° (WSW) 01:26:22 437.505
SRMSAT 28 Feb 01:18:03 01:24:00 63° 339° (NNW) 01:29:57 437.500
JUGNU 28 Feb 01:24:56 01:29:49 26° 343° (NNW) 01:34:41 437.505
BEESAT 28 Feb 01:26:10 01:30:54 69° 258° (WSW) 01:35:37 436.000
ITAMSAT 1 28 Feb 01:44:01 01:49:04 54° 102° (ESE) 01:54:08 435.822/435.867
ITUPSAT 1 28 Feb 01:51:48 01:56:04 32° 258° (WSW) 02:00:16 437.325
Oscar 19 28 Feb 01:53:56 01:58:18 28° 281° (WNW) 02:02:35 437.125/150
AO-7 28 Feb 02:14:58 02:17:04 12° 104° (ESE) 02:20:07 29.400- 29.500
KKS-1 28 Feb 02:32:36 02:37:05 68° 258° (WSW) 02:41:33 437.445
PHONESAT 2.4 28 Feb 02:33:45 02:34:32 11° 40° (NE) 02:35:31 2401.200-2431.200
Gurwin Techsat 1B 28 Feb 02:35:48 02:40:57 53° 282° (WNW) 02:46:07 435.225
STARS 28 Feb 02:46:48 02:51:16 76° 258° (WSW) 02:55:42 437.465
VERMONT LUNAR 28 Feb 02:51:28 02:54:48 55° 43° (NE) 02:58:09 437.305
SRMSAT 28 Feb 03:08:36 03:13:27 25° 343° (NNW) 03:18:15 437.500
YUBILEINY 28 Feb 03:09:39 03:16:57 31° 85° (E) 03:24:33 435.215
HORYU 2 28 Feb 03:11:03 03:15:31 89° 279° (W) 03:20:01 437.375
JUGNU 28 Feb 03:16:54 03:19:34 13° 351° (N) 03:22:09 437.505
AO-7 28 Feb 04:01:34 04:09:51 78° 285° (WNW) 04:18:08 29.400- 29.500
PHONESAT 2.4 28 Feb 04:09:34 04:13:00 46° 223° (SW) 04:16:25 2401.200-2431.200
JAS-2 28 Feb 04:09:46 04:17:37 86° 102° (ESE) 04:25:23 435.910
M-CUBED/EXP-1 PRIME 28 Feb 04:18:01 04:21:22 41° 254° (WSW) 04:24:32 437.505
AUBIESAT-1 28 Feb 04:22:50 04:26:09 40° 254° (WSW) 04:29:18 437.475
BEESAT 3 28 Feb 04:36:23 04:40:23 67° 248° (WSW) 04:44:19 437.485
AIST 2 28 Feb 04:37:59 04:41:22 25° 67° (ENE) 04:44:47 435.215
Cubesat XI-IV 28 Feb 04:49:05 04:50:14 11° 101° (E) 04:51:52 437.490
MOZHAYETS 4 28 Feb 04:57:10 05:01:22 36° 259° (W) 05:05:31
CUTE-I 28 Feb 04:57:33 05:00:15 15° 101° (E) 05:03:18 437.470
BEESAT 2 28 Feb 04:58:26 05:02:13 38° 248° (WSW) 05:05:55 435.950
SRMSAT 28 Feb 05:00:53 05:03:23 12° 351° (N) 05:05:48 437.500
YUBILEINY 28 Feb 05:05:52 05:13:40 34° 265° (W) 05:21:11 435.215
CUBESAT XI-V 28 Feb 05:12:33 05:13:50 11° 80° (E) 05:15:31 437.345
STRAND 1 28 Feb 05:36:47 05:39:26 15° 79° (E) 05:42:23 437.568
PRISM 28 Feb 05:40:23 05:43:58 30° 79° (E) 05:47:35 437.425
JAS-2 28 Feb 06:01:17 06:02:37 10° 281° (W) 06:02:59 435.910
AIST 2 28 Feb 06:18:08 06:19:51 12° 246° (WSW) 06:21:17 435.215
Cubesat XI-IV 28 Feb 06:25:11 06:30:17 46° 282° (WNW) 06:35:22 437.490
CUTE-I 28 Feb 06:35:23 06:40:14 35° 282° (WNW) 06:45:02 437.470
CUBESAT XI-V 28 Feb 06:47:01 06:51:12 33° 259° (W) 06:55:21 437.345
AIST 1 28 Feb 06:50:00 06:54:12 57° 94° (E) 06:58:26
JUGNU 28 Feb 06:56:48 06:59:49 14° 11° (N) 07:02:55 437.505
STRAND 1 28 Feb 07:13:58 07:18:32 32° 258° (WSW) 07:23:02 437.568
ISS 28 Feb 07:14:34 07:17:48 82° 126° (SE) 07:21:01 145.825
PCSat 28 Feb 07:21:56 07:26:49 37° 70° (ENE) 07:31:48 145.827
DOVE 4 28 Feb 07:48:16 07:49:28 11° 100° (E) 07:50:59 437.250
O/OREOS (USA 219) 28 Feb 08:05:27 08:08:54 22° 106° (ESE) 08:12:29 437.305
COMPASS 1 28 Feb 08:08:23 08:11:45 24° 101° (E) 08:15:13 437.405
AAUSAT CUBESAT 2 28 Feb 08:08:37 08:11:38 20° 100° (E) 08:14:50 437.432
BRITE-PL 28 Feb 08:13:02 08:17:15 87° 101° (E) 08:21:24 437.365/2234.400
CINEMA 3 28 Feb 08:18:25 08:20:35 14° 101° (E) 08:23:02 145.822/145.860
CANX-2 28 Feb 08:28:27 08:32:43 89° 282° (WNW) 08:37:02 2200.000
SEEDS 28 Feb 08:30:16 08:34:28 68° 101° (E) 08:38:44 437.485
GOMX 1 28 Feb 08:33:37 08:37:46 81° 281° (W) 08:41:56 467.674
HO-68 28 Feb 08:38:12 08:45:24 82° 283° (WNW) 08:52:37 435.675
SRMSAT 28 Feb 08:40:48 08:43:56 15° 11° (N) 08:47:11 437.500
JUGNU 28 Feb 08:44:21 08:49:29 29° 18° (NNE) 08:54:38 437.505
CUTE 1.7 + AOD 2 28 Feb 08:47:39 08:51:47 52° 281° (W) 08:55:58 437.475
CUBEBUG 2 28 Feb 08:58:34 09:02:03 26° 101° (E) 09:05:42 437.445
PCSat 28 Feb 09:07:13 09:10:11 14° 248° (WSW) 09:12:48 145.827
Oscar 11 28 Feb 09:12:44 09:17:02 69° 101° (ESE) 09:21:22 145.826/435.025
GONETS M04 28 Feb 09:16:47 09:25:08 50° 86° (E) 09:33:38
ANTELSAT 28 Feb 09:18:13 09:19:42 12° 81° (E) 09:21:32 437.575/2403.000
DOVE 4 28 Feb 09:23:46 09:27:11 24° 280° (W) 09:30:31 437.250
AISAT 28 Feb 09:24:12 09:25:01 11° 100° (E) 09:26:12 437.250
RS-15 28 Feb 09:31:25 09:42:25 46° 68° (ENE) 09:54:00 29.354- 29.394
DX 1 28 Feb 09:31:48 09:35:59 49° 102° (ESE) 09:40:11 434.975-435.025
DELFI C3 28 Feb 09:33:36 09:37:41 76° 281° (W) 09:41:47 145.870
VELOX 1 28 Feb 09:33:42 09:36:05 15° 100° (E) 09:38:43 145.980
QB50P2 28 Feb 09:40:24 09:40:41 10° 80° (E) 09:41:20 145.880/145.840
AAUSAT CUBESAT 2 28 Feb 09:44:36 09:47:12 15° 279° (W) 09:49:35 437.432
COMPASS 1 28 Feb 09:45:18 09:47:21 13° 279° (W) 09:49:09 437.405
O/OREOS (USA 219) 28 Feb 09:45:28 09:48:13 15° 287° (WNW) 09:50:44 437.305
FUNcube-1 28 Feb 09:50:56 09:55:07 84° 279° (W) 09:59:23 145.935
ZACube-1 28 Feb 09:51:03 09:55:13 82° 280° (W) 09:59:30 437.345
CINEMA 3 28 Feb 09:54:34 09:57:43 20° 280° (W) 10:00:46 145.822/145.860
DUCHIFAT 1 28 Feb 09:55:46 09:58:34 18° 80° (E) 10:01:33 145.980
BUGSAT 1 28 Feb 10:02:02 10:04:18 15° 80° (E) 10:06:49 437.445
UWE-3 28 Feb 10:03:34 10:07:29 39° 281° (W) 10:11:28 435.000/436.395/437.385
UKube-1 28 Feb 10:05:11 10:09:25 55° 282° (WNW) 10:13:39 .
POLYITAN 1 28 Feb 10:11:25 10:15:15 31° 79° (E) 10:19:06 437.675
UNISAT 6 28 Feb 10:13:22 10:17:59 76° 79° (ENE) 10:22:28 437.425
POPSAT HIP 1 28 Feb 10:13:28 10:17:20 33° 79° (E) 10:21:13 437.405
HUMSAT D 28 Feb 10:18:20 10:22:27 75° 281° (W) 10:26:38 437.325/437.525
SRMSAT 28 Feb 10:28:32 10:33:43 31° 18° (NNE) 10:38:57 437.500
JUGNU 28 Feb 10:32:43 10:38:41 78° 20° (NNE) 10:44:39 437.505
CUBEBUG 2 28 Feb 10:37:19 10:38:42 11° 279° (W) 10:39:48 437.445
NANOSAT C BR1 28 Feb 10:37:25 10:41:43 77° 79° (E) 10:46:00 145.865
TIGRISAT 28 Feb 10:40:05 10:44:33 47° 258° (WSW) 10:48:52 435.000
50 SAT 28 Feb 10:47:01 10:50:45 40° 281° (W) 10:54:31 437.505
ANTELSAT 28 Feb 10:52:20 10:56:27 31° 258° (WSW) 11:00:24 437.575/2403.000
AISAT 28 Feb 10:57:37 11:01:33 31° 281° (W) 11:05:26 437.250
VELOX 1 28 Feb 11:09:01 11:12:34 23° 281° (W) 11:16:00 145.980
QB50P1 28 Feb 11:09:47 11:13:45 35° 259° (W) 11:17:38 145.935-145.965
CUBEBUG 1 28 Feb 11:11:13 11:15:32 62° 281° (WNW) 11:19:49 437.445
ESTCUBE 1 28 Feb 11:12:25 11:16:51 54° 281° (W) 11:21:17 437.505/2401.250
QB50P2 28 Feb 11:12:40 11:16:31 31° 259° (W) 11:20:17 145.880/145.840
GONETS M04 28 Feb 11:15:42 11:21:56 20° 264° (W) 11:27:35
DUCHIFAT 1 28 Feb 11:31:14 11:34:18 18° 260° (W) 11:37:12 145.980
BUGSAT 1 28 Feb 11:36:23 11:39:41 21° 260° (W) 11:42:52 437.445
RS-15 28 Feb 11:44:19 11:54:54 34° 246° (WSW) 12:05:15 29.354- 29.394
SO-50 28 Feb 11:49:46 11:52:52 18° 65° (ENE) 11:56:11 436.795
POLYITAN 1 28 Feb 11:50:24 11:51:05 10° 260° (W) 11:51:23 437.675
SPROUT 28 Feb 11:55:03 11:59:19 90° 81° (E) 12:03:37 437.525
CUSAT 1 28 Feb 11:56:39 11:59:30 61° 263° (W) 12:03:06 437.405
TISAT 1 28 Feb 12:09:39 12:13:47 61° 281° (W) 12:17:56 437.305
BEESAT 28 Feb 12:13:44 12:15:18 12° 100° (E) 12:17:16 436.000
SRMSAT 28 Feb 12:17:05 12:23:02 84° 19° (NNE) 12:28:59 437.500
JUGNU 28 Feb 12:22:18 12:27:48 38° 200° (SSW) 12:33:15 437.505
ITUPSAT 1 28 Feb 12:37:02 12:40:53 25° 101° (E) 12:44:52 437.325
Oscar 19 28 Feb 12:48:06 12:53:01 45° 79° (ENE) 12:57:57 437.125/150
SO-50 28 Feb 13:29:19 13:33:21 25° 247° (WSW) 13:37:12 436.795
Gurwin Techsat 1B 28 Feb 13:35:20 13:39:46 28° 79° (ENE) 13:44:19 435.225
SWISSCUBE 28 Feb 13:39:23 13:43:54 41° 281° (WNW) 13:48:23 437.505
BEESAT 28 Feb 13:48:43 13:53:04 34° 281° (W) 13:57:23 436.000
SRMSAT 28 Feb 14:06:55 14:12:19 36° 199° (SSW) 14:17:41 437.500
JUGNU 28 Feb 14:13:33 14:17:17 17° 193° (SSW) 14:20:55 437.505
ITUPSAT 1 28 Feb 14:15:30 14:18:40 17° 281° (W) 14:21:36 437.325
ITAMSAT 1 28 Feb 14:19:03 14:24:09 56° 258° (WSW) 14:29:15 435.822/435.867
VERMONT LUNAR 28 Feb 14:28:55 14:32:13 42° 138° (SE) 14:35:32 437.305
Oscar 19 28 Feb 14:31:20 14:32:19 10° 259° (W) 14:32:48 437.125/150
